Location: UBC Liquid-Mirror Observatory
(49.2876°N, 122.5728°W)
Time: 08:46:01
(UTC-07:00)

KITSAT 1 - Visible Passes

Search period start: 26 May 2015 00:00
Search period end: 05 June 2015 00:00
Orbit: 1307 x 1323 km, 66.1° (Epoch: 24 May)

Date Brightness Start Highest point End Pass type
(mag) Time Alt. Az. Time Alt. Az. Time Alt. Az.
26 May 10.6 01:02:15 10° NW 01:10:21 66° NE 01:18:27 10° SE visible
26 May 10.7 02:58:06 10° NW 03:05:28 38° WSW 03:10:59 17° SSW visible
26 May 11.6 23:22:44 10° NW 23:29:58 34° NNE 23:37:14 10° E visible
27 May 10.3 01:18:22 10° NW 01:26:34 84° NE 01:33:43 14° SE visible
27 May 11.1 03:14:39 10° NW 03:21:13 27° WSW 03:25:38 17° SSW visible
27 May 12.2 21:42:19 10° NW 21:48:42 24° N 21:55:06 10° ENE visible
27 May 11.3 23:38:57 10° NW 23:46:32 41° NNE 23:54:09 10° ESE visible
28 May 10.2 01:34:31 10° NW 01:42:39 74° WSW 01:48:31 21° SSE visible
28 May 11.5 03:31:35 10° WNW 03:36:54 18° WSW 03:40:26 13° SW visible
28 May 12.1 21:58:56 10° NW 22:05:30 26° NNE 22:12:06 10° ENE visible
28 May 10.9 23:55:07 10° NW 00:03:00 50° NE 00:10:53 10° ESE visible
29 May 10.4 01:50:44 10° NW 01:58:36 55° WSW 02:03:27 25° S visible
29 May 11.9 03:49:47 10° WNW 03:52:27 11° W 03:54:33 10° WSW visible
29 May 11.9 22:15:24 10° NW 22:22:15 29° NNE 22:29:09 10° ENE visible
30 May 10.6 00:11:14 10° NW 00:19:20 64° NE 00:26:33 14° SE visible
30 May 10.8 02:07:04 10° NW 02:14:29 39° WSW 02:18:29 24° SSW visible
30 May 11.6 22:31:44 10° NW 22:38:55 33° NNE 22:46:10 10° E visible
31 May 10.3 00:27:21 10° NW 00:35:33 83° NE 00:41:39 20° SE visible
31 May 11.2 02:23:36 10° NW 02:30:15 28° WSW 02:33:35 21° SW visible
31 May 11.3 22:47:57 10° NW 22:55:30 40° NNE 23:03:05 10° ESE visible
01 Jun 10.2 00:43:30 10° NW 00:51:39 76° WSW 00:56:50 25° SSE visible
01 Jun 11.6 02:40:30 10° WNW 02:45:55 19° WSW 02:48:46 15° SW visible
01 Jun 10.9 23:04:06 10° NW 23:11:58 50° NE 23:19:50 10° ESE visible
02 Jun 10.4 00:59:43 10° NW 01:07:37 56° WSW 01:12:04 27° S visible
02 Jun 11.9 02:58:30 10° WNW 03:01:30 12° W 03:03:56 10° WSW visible
02 Jun 10.6 23:20:14 10° NW 23:28:19 63° NE 23:35:25 14° SE visible
03 Jun 10.8 01:16:02 10° NW 01:23:29 40° WSW 01:27:22 26° SSW visible
03 Jun 11.6 21:40:43 10° NW 21:47:52 33° NNE 21:55:05 10° E visible
03 Jun 10.3 23:36:21 10° NW 23:44:33 81° NE 23:50:46 19° SE visible
04 Jun 11.2 01:32:33 10° NW 01:39:16 29° WSW 01:42:43 21° SW visible
04 Jun 11.3 21:56:57 10° NW 22:04:28 39° NNE 22:12:02 10° E visible
